IRIDIUM 33 DEB, 37550

Orbit data source: Space-Track

IRIDIUM 33 DEB, 37550 is space debris in LEO originally from a launch on Sun, 14 Sep 1997 UTC launched from the Tyuratam Missile And Space Complex (TTMTR). The debris from Iridium 33, an American commercial communications satellite, has been tracked extensively since its accidental collision with the defunct Russian satellite Cosmos 2251 in 2009. This event, occurring at high speed in low Earth orbit (LEO), generated thousands of pieces of space debris, significantly increasing the risk of further collisions. The Iridium 33 debris cloud has impacted space traffic management and orbital debris mitigation strategies, making it a subject of ongoing study in space situational awareness.

Loading next visibility...
Identifier
37550, 1997-051XK
Orbit
LEO
Country
Flag of USUS
Related business
Manufacturer
Unknown
Mission
Spacecraft
Bus & Motor
Unknown
Mass
Unknown
Launch date (UTC)
1997-09-14 (28 years ago)
Launch vehicle
Unknown
Launch site
Tyuratam Missile And Space Complex (TTMTR)
Object type
Payload
Rocket body
Debris
Shape & HBR
Unknown shape, 0.1 m
Radar Cross Section
Small (<0.1 m²)

Expand to show TLE details & history
Last TLE update: 2 days ago

TLE from 2 days ago
0 IRIDIUM 33 DEB
1 37550U 97051XK  25353.36644876  .00004861  00000-0  85807-3 0  9994
2 37550  86.3772  20.9380 0005615  96.5697 263.6157 14.67293181864309
Epoch: 2025-12-19T08:47Z
TLE epoch observation values (Epoch: 2025-12-19T08:47:41.172Z)
Latitude
0.00001°
Longitude
160.80782°
Altitude
673.262 km
Speed
7.52 km/s
True Right ascension
01h 23m 45s
True Declination
0° 00' 00"
Sunlit
Object was in daylight at epoch
Visualization orbit readout
Latitude
Unknown
Longitude
Unknown
Altitude
Unknown
Speed
Unknown
Apparent Right ascension
Unknown
Apparent Declination
Unknown
Sunlit
N/A
Visualization observer readout
Local Sidereal Time
13:07:13
Azimuth
Unknown
Elevation
Unknown
Doppler factor
Unknown
Orbital elements
Apogee altitude
670.597 km
Perigee altitude
662.685 km
Semi-major axis
7,044.778 km
Eccentricity
0.00056
Inclination
86.3772°
RAAN
20.938°
Arg. of periapsis
96.5697°
True anomaly
263.55176°
Mean anomaly
263.6157°
Eccentric anomaly
263.58373°
Mean motion
3.67064 °/min
Orbital period
98.08 mins
BSTAR
0.00085807
Loading maneuver chart data...
Computing Atmospheric mass density...

Documentation

Showing up to 5 results
|